This is the latest recevied weather packets stored in our database for station/object R2AJV-13. If no packets are shown the sender has not sent any weather packets the latest 10 day(s).
| Time | Temp. | Humidity | Pressure | Rain* | Wind** | Luminosity | Snow |
|---|---|---|---|---|---|---|---|
| 1788300071 | 16.11° C | 96% | 996.2 hPa | 0 mm | - | - | - |
| 1788299159 | 16.11° C | 97% | 996.2 hPa | 0 mm | - | - | - |
| 1788298255 | 16.11° C | 97% | 996.2 hPa | 0 mm | - | - | - |
| 1788297345 | 16.11° C | 98% | 996.3 hPa | 0 mm | - | - | - |
| 1788296468 | 16.11° C | 98% | 996.5 hPa | 0 mm | - | - | - |
| 1788295558 | 16.11° C | 97% | 996.6 hPa | 0 mm | - | - | - |
| 1788294647 | 16.11° C | 97% | 996.8 hPa | 0 mm | - | - | - |
| 1788293737 | 16.67° C | 96% | 996.8 hPa | 0 mm | - | - | - |
| 1788292825 | 16.67° C | 95% | 996.8 hPa | 0 mm | - | - | - |
| 1788291920 | 17.22° C | 93% | 996.8 hPa | 0 mm | - | - | - |
| 1788290158 | 18.33° C | 87% | 998 hPa | 0 mm | - | - | - |
| 1788289248 | 18.33° C | 86% | 998.1 hPa | 0 mm | - | - | - |
| 1788288338 | 17.78° C | 87% | 998.4 hPa | 0 mm | - | - | - |
| 1788287432 | 17.78° C | 88% | 998.2 hPa | 0 mm | - | - | - |
| 1788286521 | 17.78° C | 88% | 998.1 hPa | 0 mm | - | - | - |
| 1788285671 | 18.33° C | 89% | 998.2 hPa | 0 mm | - | - | - |
| 1788284760 | 18.33° C | 88% | 998.4 hPa | 0 mm | - | - | - |
| 1788283855 | 18.33° C | 88% | 998.4 hPa | 0 mm | - | - | - |
| 1788282945 | 18.33° C | 89% | 998.5 hPa | 0 mm | - | - | - |
| 1788282061 | 18.33° C | 89% | 998.7 hPa | 0 mm | - | - | - |
| 1788281156 | 18.33° C | 88% | 998.6 hPa | 0 mm | - | - | - |
| 1788280246 | 18.33° C | 88% | 998.6 hPa | 0 mm | - | - | - |
| 1788279336 | 18.89° C | 87% | 998.6 hPa | 0 mm | - | - | - |
| 1788278425 | 19.44° C | 84% | 998.8 hPa | 0 mm | - | - | - |
| 1788277520 | 20° C | 83% | 999 hPa | 0 mm | - | - | - |
* Rain latest hour (hover to see other rain measurements)
** Current wind speed in m/s (hover to see current wind gust speed)